{"data":{"norad_id":47933,"intl_designator":"2021-022B","name":"GRUS-1C","alt_names":[],"object_type":"PAYLOAD","status":"ACTIVE","operator":null,"country":"JPN","launch_date":"2021-03-22","launch_site_code":"TYMSC","launch_vehicle":null,"mission":null,"orbit_class":"UNKNOWN","rcs_meters":null,"size_class":null,"mass_kg":null,"dimensions":null,"purposes":[],"wikipedia_slug":null,"has_3d_model":false,"image_url":null,"decayed_at":null,"tle_current":{"epoch":"2026-09-20T22:15:54.637344Z","epoch_age_seconds":47949,"freshness":"FRESH","line1":"1 47933U 21022B   26263.92771571  .00000475  00000+0  44024-4 0  9994","line2":"2 47933  97.5189 143.7680 0012694 358.5384   1.5800 14.98826642300247","mean_motion":14.98826642,"eccentricity":0.0012694,"inclination_deg":97.5189,"raan_deg":143.768,"arg_perigee_deg":358.5384,"mean_anomaly_deg":1.58,"bstar":4.4024e-5,"rev_number":30024,"period_min":96.07515370013,"perigee_km":561.69986480904,"apogee_km":579.34111644625,"semimajor_km":6948.6574906276,"source":"CELESTRAK","updated_at":"2026-09-21T09:00:07.620037Z"}}}